TimeEST,TemperatureF,Dew PointF,Humidity,Sea Level PressureIn,VisibilityMPH,Wind Direction,Wind SpeedMPH,Gust SpeedMPH,PrecipitationIn,Events,Conditions,WindDirDegrees,DateUTC
12:15 AM,33.8,28.4,81,30.11,10.0,NNW,20.7,31.1,N/A,,Overcast,340,2013-02-22 05:15:00
12:35 AM,33.8,28.4,81,30.13,10.0,NNW,21.9,31.1,N/A,,Overcast,330,2013-02-22 05:35:00
12:55 AM,35.6,28.4,75,30.15,10.0,NNW,21.9,31.1,N/A,,Overcast,340,2013-02-22 05:55:00
1:15 AM,35.6,28.4,75,30.16,10.0,NNW,21.9,29.9,N/A,,Overcast,340,2013-02-22 06:15:00
1:55 AM,33.8,28.4,81,30.18,10.0,NNW,21.9,27.6,N/A,,Overcast,330,2013-02-22 06:55:00
2:15 AM,33.8,26.6,75,30.18,10.0,NNW,23.0,32.2,N/A,,Overcast,330,2013-02-22 07:15:00
2:35 AM,33.8,26.6,75,30.18,10.0,NNW,19.6,32.2,N/A,,Overcast,330,2013-02-22 07:35:00
3:15 AM,35.6,26.6,70,30.19,10.0,North,20.7,29.9,N/A,,Overcast,360,2013-02-22 08:15:00
3:55 AM,35.6,28.4,75,30.21,10.0,North,19.6,27.6,N/A,,Overcast,360,2013-02-22 08:55:00
4:15 AM,35.6,28.4,75,30.22,10.0,North,19.6,27.6,N/A,,Overcast,360,2013-02-22 09:15:00
4:35 AM,35.6,26.6,70,30.23,10.0,North,21.9,27.6,N/A,,Overcast,360,2013-02-22 09:35:00
4:55 AM,35.6,26.6,70,30.23,10.0,North,19.6,26.5,N/A,,Overcast,360,2013-02-22 09:55:00
5:35 AM,35.6,26.6,70,30.25,10.0,NNE,17.3,28.8,N/A,,Overcast,20,2013-02-22 10:35:00
5:55 AM,35.6,26.6,70,30.26,10.0,NNE,16.1,26.5,N/A,,Overcast,20,2013-02-22 10:55:00
6:15 AM,35.6,24.8,65,30.28,10.0,NNE,17.3,25.3,N/A,,Overcast,20,2013-02-22 11:15:00
6:35 AM,35.6,24.8,65,30.29,10.0,NNE,13.8,23.0,N/A,,Overcast,20,2013-02-22 11:35:00
6:55 AM,35.6,26.6,70,30.30,10.0,NNE,15.0,21.9,N/A,,Overcast,20,2013-02-22 11:55:00
7:15 AM,35.6,24.8,65,30.32,10.0,North,15.0,21.9,N/A,,Overcast,10,2013-02-22 12:15:00
7:55 AM,35.6,24.8,65,30.34,10.0,NNE,16.1,21.9,N/A,,Overcast,20,2013-02-22 12:55:00
8:15 AM,35.6,24.8,65,30.34,10.0,NNE,13.8,20.7,N/A,,Overcast,20,2013-02-22 13:15:00
8:35 AM,35.6,24.8,65,30.35,10.0,NNE,18.4,21.9,N/A,,Overcast,20,2013-02-22 13:35:00
8:55 AM,35.6,24.8,65,30.35,10.0,North,12.7,20.7,N/A,,Overcast,10,2013-02-22 13:55:00
9:15 AM,35.6,26.6,70,30.35,10.0,NNE,15.0,21.9,N/A,,Overcast,30,2013-02-22 14:15:00
9:35 AM,35.6,26.6,70,30.34,10.0,NNE,15.0,19.6,N/A,,Overcast,30,2013-02-22 14:35:00
10:15 AM,35.6,24.8,65,30.34,10.0,NNE,15.0,20.7,N/A,,Overcast,20,2013-02-22 15:15:00
10:35 AM,35.6,24.8,65,30.35,10.0,NNE,16.1,20.7,N/A,,Overcast,30,2013-02-22 15:35:00
10:55 AM,35.6,24.8,65,30.35,10.0,NNE,18.4,-,N/A,,Overcast,30,2013-02-22 15:55:00
11:15 AM,37.4,24.8,60,30.35,10.0,NNE,15.0,19.6,N/A,,Overcast,30,2013-02-22 16:15:00
11:35 AM,35.6,23.0,60,30.35,10.0,NNE,15.0,-,N/A,,Overcast,20,2013-02-22 16:35:00
11:55 AM,35.6,24.8,65,30.34,10.0,NNE,15.0,19.6,N/A,,Overcast,30,2013-02-22 16:55:00
12:15 PM,35.6,23.0,60,30.34,10.0,NNE,15.0,20.7,N/A,,Overcast,30,2013-02-22 17:15:00
12:35 PM,35.6,26.6,70,30.34,10.0,NNE,11.5,-,N/A,,Overcast,20,2013-02-22 17:35:00
12:55 PM,35.6,24.8,65,30.35,10.0,NNE,12.7,-,N/A,,Overcast,30,2013-02-22 17:55:00
1:15 PM,35.6,24.8,65,30.34,10.0,NNE,12.7,-,N/A,,Overcast,30,2013-02-22 18:15:00
1:35 PM,35.6,24.8,65,30.34,10.0,NNE,11.5,-,N/A,,Overcast,20,2013-02-22 18:35:00
2:15 PM,35.6,24.8,65,30.35,10.0,NNE,11.5,-,N/A,,Overcast,30,2013-02-22 19:15:00
2:35 PM,35.6,24.8,65,30.35,10.0,NE,10.4,-,N/A,,Overcast,40,2013-02-22 19:35:00
2:55 PM,35.6,24.8,65,30.34,10.0,NNE,16.1,-,N/A,,Overcast,30,2013-02-22 19:55:00
3:15 PM,35.6,24.8,65,30.35,10.0,NE,12.7,-,N/A,,Overcast,40,2013-02-22 20:15:00
3:35 PM,35.6,24.8,65,30.35,10.0,NNE,15.0,19.6,N/A,,Overcast,30,2013-02-22 20:35:00
3:55 PM,35.6,24.8,65,30.36,10.0,NE,8.1,-,N/A,,Overcast,40,2013-02-22 20:55:00
4:15 PM,35.6,23.0,60,30.36,10.0,NNE,11.5,-,N/A,,Overcast,30,2013-02-22 21:15:00
4:35 PM,35.6,24.8,65,30.36,10.0,NE,10.4,-,N/A,,Overcast,40,2013-02-22 21:35:00
4:55 PM,35.6,24.8,65,30.35,10.0,NE,6.9,-,N/A,,Overcast,50,2013-02-22 21:55:00
5:15 PM,35.6,24.8,65,30.35,10.0,NE,9.2,-,N/A,,Overcast,50,2013-02-22 22:15:00
5:35 PM,35.6,24.8,65,30.34,10.0,ENE,11.5,-,N/A,,Overcast,70,2013-02-22 22:35:00
5:55 PM,35.6,24.8,65,30.35,10.0,ENE,6.9,-,N/A,,Overcast,70,2013-02-22 22:55:00
6:15 PM,35.6,24.8,65,30.35,10.0,ENE,6.9,-,N/A,,Overcast,70,2013-02-22 23:15:00
6:35 PM,35.6,24.8,65,30.35,10.0,ENE,9.2,-,N/A,,Overcast,70,2013-02-22 23:35:00
6:55 PM,35.6,24.8,65,30.36,10.0,ENE,4.6,-,N/A,,Overcast,70,2013-02-22 23:55:00
7:15 PM,35.6,24.8,65,30.36,10.0,East,5.8,-,N/A,,Overcast,90,2013-02-23 00:15:00
7:35 PM,35.6,24.8,65,30.36,10.0,East,3.5,-,N/A,,Overcast,100,2013-02-23 00:35:00
7:55 PM,33.8,24.8,70,30.36,10.0,ESE,3.5,-,N/A,,Overcast,110,2013-02-23 00:55:00
8:15 PM,33.8,24.8,70,30.35,10.0,East,4.6,-,N/A,,Overcast,80,2013-02-23 01:15:00
8:35 PM,35.6,24.8,65,30.36,10.0,ENE,5.8,-,N/A,,Overcast,70,2013-02-23 01:35:00
8:55 PM,35.6,24.8,65,30.35,10.0,ENE,4.6,-,N/A,,Overcast,70,2013-02-23 01:55:00
9:15 PM,35.6,24.8,65,30.37,10.0,Calm,Calm,-,N/A,,Overcast,0,2013-02-23 02:15:00
9:35 PM,35.6,24.8,65,30.36,10.0,NE,3.5,-,N/A,,Overcast,50,2013-02-23 02:35:00
9:55 PM,33.8,26.6,75,30.36,10.0,SE,3.5,-,N/A,,Overcast,130,2013-02-23 02:55:00
10:15 PM,33.8,26.6,75,30.36,10.0,Calm,Calm,-,N/A,,Overcast,0,2013-02-23 03:15:00
10:35 PM,33.8,26.6,75,30.35,10.0,Calm,Calm,-,N/A,,Overcast,0,2013-02-23 03:35:00
10:55 PM,33.8,26.6,75,30.35,10.0,Calm,Calm,-,N/A,,Overcast,0,2013-02-23 03:55:00
11:15 PM,33.8,26.6,75,30.35,10.0,Calm,Calm,-,N/A,,Overcast,0,2013-02-23 04:15:00
11:35 PM,33.8,24.8,70,30.35,10.0,Calm,Calm,-,N/A,,Overcast,0,2013-02-23 04:35:00
11:55 PM,33.8,28.4,81,30.35,10.0,Calm,Calm,-,N/A,,Overcast,0,2013-02-23 04:55:00